Regional Weather Roundup
Issued by NWS Sioux Falls, SD

Home | Current Version | Previous Version | Graphics & Text | Print | Product List | Glossary Off
Versions: 1 2 3 4 5 6 7 8 9 10 11 12 13 14 15 16 17 18 19 20 21 22 23 24 25 26 27 28 29 30 31 32 33 34 35 36 37 38 39 40 41 42 43 44 45 46 47 48 49 50

000
ASUS43 KFSD 231902
RWRFSD

WEATHER ROUNDUP FOR SE SOUTH DAKOTA/SW MINNESOTA/NW IOWA
NATIONAL WEATHER SERVICE SIOUX FALLS SD
200 PM CDT WED MAY 23 2018

NOTE: "FAIR" INDICATES FEW OR NO CLOUDS BELOW 12,000 FEET WITH NO
SIGNIFICANT WEATHER AND OR OBSTRUCTIONS TO VISIBILITY.


SDZ038>040-050-052>070-232000-
SOUTHEAST SOUTH DAKOTA

CITY           SKY/WX    TMP DP  RH WIND       PRES   REMARKS
BROOKINGS      CLOUDY    76  66  71 SE21      30.01F
CHAMBERLAIN    MOSUNNY   83  72  67 SE21G26   29.90F
HURON          PTSUNNY   82  68  62 SE17G31   29.91F
MADISON        FAIR      79  73  83 SE20G25   29.99F
MITCHELL       PTSUNNY   84  69  60 SE29G41   29.91F
SIOUX FALLS    CLOUDY    83  69  62 S17G25    29.99F
WINNER         FAIR      84  63  49 S14       29.91S
YANKTON        MOSUNNY   88  60  38 SE20G31   29.95F
$$

MNZ071-072-080-081-089-090-097-098-232000-
SOUTHWEST MINNESOTA

CITY           SKY/WX    TMP DP  RH WIND       PRES   REMARKS
FAIRMONT       CLOUDY    78  67  68 SW6       30.10S
JACKSON        PTSUNNY   79  66  65 S7        30.10S
LUVERNE        MOSUNNY   82  61  47 S15G24    30.02F
MARSHALL       MOSUNNY   76  64  66 SE21G26   30.04F
MONTEVIDEO     CLOUDY    70  63  78 N8        30.09R
PIPESTONE      CLOUDY    79  64  61 SE14G20   30.03F
REDWOOD FALLS  CLOUDY    75  66  73 SE17      30.06S
TRACY          PTSUNNY   76  66  72 SE16G22   30.06F
WINDOM         CLOUDY    73  54  49 E12       30.09F
WORTHINGTON    CLOUDY    83  66  56 S14G22    30.06F
$$

IAZ001>003-012>014-020>022-031-032-NEZ013-014-SDZ071-232000-
NORTHWEST IOWA

CITY           SKY/WX    TMP DP  RH WIND       PRES   REMARKS
DENISON        MOSUNNY   88  64  45 S15G22    30.06F
ESTHERVILLE    CLOUDY    78  68  71 S16       30.08F
ORANGE CITY    MOSUNNY   84  66  54 S13       30.03F
SHELDON        CLOUDY    84  68  58 S17G28    30.02F
SIOUX CITY     CLOUDY    87  66  49 S18G25    30.01F
SPENCER        MOSUNNY   83  67  58 SE14G26   30.06F
STORM LAKE     MOSUNNY   84  64  51 S17G24    30.06F
$$

ABBREVIATIONS USED IN REMARKS
   TC - TEMPERATURE IN CELSIUS
  WCI - WIND CHILL INDEX
   HX - HEAT INDEX
  VSB - VISIBILITY





USA.gov is the U.S. government's official web portal to all federal, state and local government web resources and services.